| time (UTC) | temp C | wind direction | speed KPH | gust KPH | rain 1hr cm | rain 24hr cm | rain mn cm | humidity % | barometer mb |
| 20260906091011 | 22 | 92 | 4.8 | 8.0 | 0.00 | 0.00 | 0.00 | 92 | 1015.6 |
| 20260906085012 | 22 | 25 | 3.2 | 6.4 | 0.00 | 0.00 | 0.00 | 92 | 1015.4 |
| 20260906084011 | 22 | 19 | 6.4 | 8.0 | 0.00 | 0.00 | 0.00 | 92 | 1015.3 |
| 20260906083013 | 22 | 43 | 3.2 | 6.4 | 0.00 | 0.00 | 0.00 | 92 | 1015.2 |
| 20260906082011 | 22 | 43 | 3.2 | 6.4 | 0.00 | 0.00 | 0.00 | 91 | 1015.1 |
| 20260906081012 | 22 | 26 | 6.4 | 11.3 | 0.00 | 0.00 | 0.00 | 91 | 1015.2 |
| 20260906080013 | 22 | 45 | 1.6 | 4.8 | 0.00 | 0.00 | 0.00 | 90 | 1015.1 |
| 20260906075111 | 22 | 58 | 3.2 | 9.7 | 0.00 | 0.00 | 0.00 | 90 | 1015.1 |
| 20260906074112 | 23 | 30 | 4.8 | 6.4 | 0.00 | 0.00 | 0.00 | 89 | 1015.0 |
| 20260906073112 | 23 | 32 | 8.0 | 12.9 | 0.00 | 0.00 | 0.00 | 89 | 1015.1 |
| 20260906072113 | 23 | 24 | 4.8 | 8.0 | 0.00 | 0.00 | 0.00 | 88 | 1015.1 |
| 20260906071114 | 23 | 43 | 4.8 | 9.7 | 0.00 | 0.00 | 0.00 | 86 | 1015.3 |
| 20260906070111 | 23 | 33 | 6.4 | 8.0 | 0.00 | 0.00 | 0.00 | 85 | 1015.3 |
| 20260906065113 | 23 | 33 | 8.0 | 12.9 | 0.00 | 0.00 | 0.00 | 85 | 1015.3 |
| 20260906065011 | 23 | 36 | 6.4 | 6.4 | 0.00 | 0.00 | 0.00 | 85 | 1015.3 |
| 20260906064913 | 23 | 22 | 3.2 | 4.8 | 0.00 | 0.00 | 0.00 | 85 | 1015.4 |
| 20260906062911 | 24 | 17 | 3.2 | 6.4 | 0.00 | 0.00 | 0.00 | 84 | 1015.5 |
| 20260906061913 | 24 | 8 | 4.8 | 8.0 | 0.00 | 0.00 | 0.00 | 84 | 1015.6 |
| 20260906060913 | 24 | 43 | 3.2 | 4.8 | 0.00 | 0.00 | 0.00 | 84 | 1015.6 |
| 20260906060011 | 24 | 21 | 4.8 | 6.4 | 0.00 | 0.00 | 0.00 | 83 | 1015.5 |
| 20260906055013 | 24 | 29 | 1.6 | 3.2 | 0.00 | 0.00 | 0.00 | 83 | 1015.6 |
| 20260906054013 | 24 | 2 | 1.6 | 3.2 | 0.00 | 0.00 | 0.00 | 83 | 1015.6 |
| 20260906053012 | 24 | 7 | 6.4 | 8.0 | 0.00 | 0.00 | 0.00 | 82 | 1015.6 |
| 20260906052012 | 25 | 22 | 1.6 | 3.2 | 0.00 | 0.00 | 0.00 | 82 | 1015.4 |
| 20260906051013 | 25 | 26 | 4.8 | 6.4 | 0.00 | 0.00 | 0.00 | 82 | 1015.3 |
| 20260906045910 | 25 | 22 | 3.2 | 3.2 | 0.00 | 0.00 | 0.00 | 81 | 1015.2 |
| 20260906044912 | 25 | 34 | 4.8 | 8.0 | 0.00 | 0.00 | 0.00 | 81 | 1015.1 |
| 20260906043911 | 25 | 20 | 3.2 | 6.4 | 0.00 | 0.00 | 0.00 | 80 | 1015.0 |
| 20260906043010 | 25 | 15 | 3.2 | 4.8 | 0.00 | 0.00 | 0.00 | 80 | 1014.9 |
| 20260906042013 | 26 | 32 | 3.2 | 4.8 | 0.00 | 0.00 | 0.00 | 80 | 1014.8 |
| 20260906041011 | 26 | 34 | 1.6 | 4.8 | 0.00 | 0.00 | 0.00 | 79 | 1014.8 |
| 20260906040028 | 26 | 24 | 4.8 | 6.4 | 0.00 | 0.00 | 0.00 | 78 | 1014.8 |
| 20260906035028 | 26 | 36 | 4.8 | 6.4 | 0.00 | 0.00 | 0.00 | 78 | 1014.9 |
| 20260906033028 | 26 | 31 | 4.8 | 8.0 | 0.00 | 0.00 | 0.00 | 77 | 1014.9 |
| 20260906032028 | 26 | 28 | 4.8 | 6.4 | 0.00 | 0.00 | 0.00 | 76 | 1014.7 |
| 20260906031027 | 26 | 22 | 3.2 | 4.8 | 0.00 | 0.00 | 0.00 | 77 | 1014.7 |
| 20260906030028 | 26 | 45 | 0.0 | 3.2 | 0.00 | 0.00 | 0.00 | 77 | 1014.7 |
| 20260906025028 | 26 | 22 | 3.2 | 4.8 | 0.00 | 0.00 | 0.00 | 76 | 1014.7 |
| 20260906023028 | 25 | 11 | 3.2 | 6.4 | 0.00 | 0.00 | 0.00 | 76 | 1014.4 |
| 20260906022029 | 25 | 360 | 1.6 | 3.2 | 0.00 | 0.00 | 0.00 | 76 | 1014.4 |
| 20260906021029 | 25 | 337 | 1.6 | 4.8 | 0.00 | 0.00 | 0.00 | 76 | 1014.2 |
| 20260906020128 | 25 | 67 | 0.0 | 0.0 | 0.00 | 0.00 | 0.00 | 76 | 1013.9 |
| 20260906015128 | 25 | 67 | 0.0 | 0.0 | 0.00 | 0.00 | 0.00 | 75 | 1013.8 |
| 20260906014127 | 25 | 67 | 0.0 | 0.0 | 0.00 | 0.00 | 0.00 | 75 | 1013.7 |
| 20260906013128 | 25 | 22 | 0.0 | 0.0 | 0.00 | 0.00 | 0.00 | 74 | 1013.6 |
| 20260906012130 | 26 | 22 | 0.0 | 0.0 | 0.00 | 0.00 | 0.00 | 74 | 1013.5 |
| 20260906011227 | 26 | 22 | 0.0 | 0.0 | 0.00 | 0.00 | 0.00 | 72 | 1013.5 |
| 20260906010229 | 26 | 22 | 0.0 | 0.0 | 0.00 | 0.00 | 0.00 | 69 | 1013.2 |
| 20260906010128 | 26 | 22 | 0.0 | 0.0 | 0.00 | 0.00 | 0.00 | 69 | 1013.2 |
| 20260906005128 | 26 | 22 | 0.0 | 0.0 | 0.00 | 0.00 | 0.00 | 69 | 1013.1 |
| 20260906004226 | 26 | 22 | 0.0 | 0.0 | 0.00 | 0.00 | 0.00 | 68 | 1013.2 |
| 20260906003228 | 27 | 22 | 0.0 | 0.0 | 0.00 | 0.00 | 0.00 | 66 | 1013.4 |
| 20260906002228 | 27 | 22 | 0.0 | 0.0 | 0.00 | 0.00 | 0.00 | 65 | 1013.6 |
| 20260906001228 | 27 | 22 | 1.6 | 1.6 | 0.00 | 0.00 | 0.00 | 64 | 1013.8 |
| 20260905235228 | 28 | 202 | 0.0 | 0.0 | 0.00 | 0.00 | 0.00 | 59 | 1013.7 |
| 20260905233231 | 28 | 202 | 0.0 | 0.0 | 0.00 | 0.00 | 0.00 | 59 | 1013.8 |
| 20260905232128 | 28 | 202 | 0.0 | 0.0 | 0.00 | 0.00 | 0.00 | 58 | 1013.9 |
| 20260905231131 | 28 | 181 | 1.6 | 6.4 | 0.00 | 0.00 | 0.00 | 60 | 1013.6 |
| 20260905230130 | 28 | 208 | 1.6 | 3.2 | 0.00 | 0.00 | 0.00 | 59 | 1013.7 |
| 20260905225228 | 28 | 180 | 3.2 | 4.8 | 0.00 | 0.00 | 0.00 | 60 | 1013.8 |
| 20260905224228 | 28 | 207 | 4.8 | 8.0 | 0.00 | 0.00 | 0.00 | 61 | 1013.7 |
| 20260905224129 | 28 | 215 | 6.4 | 12.9 | 0.00 | 0.00 | 0.00 | 60 | 1013.7 |
| 20260905223129 | 29 | 222 | 6.4 | 12.9 | 0.00 | 0.00 | 0.00 | 64 | 1013.8 |
| 20260905221130 | 32 | 244 | 8.0 | 14.5 | 0.00 | 0.00 | 0.00 | 58 | 1013.5 |
| 20260905220129 | 33 | 337 | 0.0 | 0.0 | 0.00 | 0.00 | 0.00 | 56 | 1013.2 |
| 20260905215129 | 33 | 22 | 1.6 | 1.6 | 0.00 | 0.00 | 0.00 | 56 | 1013.1 |
| 20260905214226 | 33 | 360 | 0.0 | 0.0 | 0.00 | 0.00 | 0.00 | 55 | 1013.3 |
| 20260905214128 | 33 | 360 | 0.0 | 3.2 | 0.00 | 0.00 | 0.00 | 54 | 1013.3 |
| 20260905213127 | 33 | 360 | 1.6 | 3.2 | 0.00 | 0.00 | 0.00 | 55 | 1013.4 |
| 20260905212127 | 33 | 270 | 1.6 | 3.2 | 0.00 | 0.00 | 0.00 | 54 | 1013.3 |
| 20260905210128 | 34 | 19 | 4.8 | 6.4 | 0.00 | 0.00 | 0.00 | 53 | 1013.4 |
| 20260905205127 | 34 | 4 | 4.8 | 6.4 | 0.00 | 0.00 | 0.00 | 53 | 1013.6 |
| 20260905205028 | 34 | 358 | 6.4 | 9.7 | 0.00 | 0.00 | 0.00 | 53 | 1013.5 |
| 20260905204127 | 34 | 350 | 4.8 | 9.7 | 0.00 | 0.00 | 0.00 | 53 | 1013.7 |
| 20260905203127 | 34 | 7 | 9.7 | 14.5 | 0.00 | 0.00 | 0.00 | 53 | 1013.9 |
| 20260905202128 | 34 | 29 | 6.4 | 8.0 | 0.00 | 0.00 | 0.00 | 52 | 1013.9 |
| 20260905200129 | 33 | 275 | 1.6 | 4.8 | 0.00 | 0.00 | 0.00 | 51 | 1014.2 |
| 20260905195129 | 33 | 338 | 4.8 | 6.4 | 0.00 | 0.00 | 0.00 | 52 | 1014.2 |
| 20260905194128 | 33 | 292 | 1.6 | 3.2 | 0.00 | 0.00 | 0.00 | 54 | 1014.3 |
| 20260905193129 | 33 | 5 | 9.7 | 12.9 | 0.00 | 0.00 | 0.00 | 53 | 1014.5 |
| 20260905192127 | 33 | 268 | 4.8 | 9.7 | 0.00 | 0.00 | 0.00 | 54 | 1014.6 |
| 20260905191227 | 33 | 25 | 4.8 | 6.4 | 0.00 | 0.00 | 0.00 | 54 | 1014.8 |
| 20260905185228 | 33 | 317 | 3.2 | 6.4 | 0.00 | 0.00 | 0.00 | 54 | 1015.0 |
| 20260905184326 | 33 | 267 | 4.8 | 6.4 | 0.00 | 0.00 | 0.00 | 54 | 1015.2 |
| 20260905183328 | 33 | 247 | 3.2 | 3.2 | 0.00 | 0.00 | 0.00 | 52 | 1015.3 |
| 20260905183227 | 33 | 239 | 0.0 | 3.2 | 0.00 | 0.00 | 0.00 | 53 | 1015.3 |
| 20260905182228 | 33 | 240 | 4.8 | 8.0 | 0.00 | 0.00 | 0.00 | 53 | 1015.6 |
| 20260905181326 | 33 | 187 | 0.0 | 3.2 | 0.00 | 0.00 | 0.00 | 54 | 1015.6 |
| 20260905180329 | 33 | 247 | 0.0 | 0.0 | 0.00 | 0.00 | 0.00 | 53 | 1015.7 |
| 20260905175427 | 32 | 155 | 0.0 | 1.6 | 0.00 | 0.00 | 0.00 | 54 | 1015.7 |
| 20260905174526 | 32 | 252 | 4.8 | 11.3 | 0.00 | 0.00 | 0.00 | 53 | 1015.7 |
| 20260905173527 | 32 | 247 | 8.0 | 8.0 | 0.00 | 0.00 | 0.00 | 52 | 1015.8 |
| 20260905172528 | 33 | 222 | 4.8 | 8.0 | 0.00 | 0.00 | 0.00 | 52 | 1015.9 |
| 20260905171626 | 33 | 165 | 6.4 | 8.0 | 0.00 | 0.00 | 0.00 | 53 | 1016.1 |
| 20260905170628 | 32 | 164 | 4.8 | 9.7 | 0.00 | 0.00 | 0.00 | 53 | 1016.4 |
| 20260905165726 | 32 | 225 | 3.2 | 4.8 | 0.00 | 0.00 | 0.00 | 54 | 1016.6 |
| 20260905164728 | 31 | 170 | 6.4 | 9.7 | 0.00 | 0.00 | 0.00 | 56 | 1016.4 |
| 20260905163826 | 31 | 139 | 3.2 | 6.4 | 0.00 | 0.00 | 0.00 | 56 | 1016.3 |
| 20260905162827 | 31 | 228 | 4.8 | 6.4 | 0.00 | 0.00 | 0.00 | 57 | 1016.3 |
| 20260905161926 | 31 | 122 | 6.4 | 8.0 | 0.00 | 0.00 | 0.00 | 56 | 1016.3 |
| 20260905160927 | 31 | 160 | 4.8 | 6.4 | 0.00 | 0.00 | 0.00 | 57 | 1016.7 |
| 20260905155928 | 30 | 91 | 1.6 | 6.4 | 0.00 | 0.00 | 0.00 | 59 | 1017.0 |
| 20260905154930 | 30 | 162 | 1.6 | 8.0 | 0.00 | 0.00 | 0.00 | 59 | 1017.0 |
| 20260905154026 | 30 | 210 | 4.8 | 9.7 | 0.00 | 0.00 | 0.00 | 61 | 1017.0 |
| 20260905153028 | 29 | 161 | 3.2 | 4.8 | 0.00 | 0.00 | 0.00 | 61 | 1017.0 |
| 20260905152127 | 28 | 163 | 3.2 | 8.0 | 0.00 | 0.00 | 0.00 | 63 | 1016.8 |
| 20260905151127 | 28 | 68 | 4.8 | 9.7 | 0.00 | 0.00 | 0.00 | 64 | 1016.8 |
| 20260905150226 | 27 | 154 | 8.0 | 12.9 | 0.00 | 0.00 | 0.00 | 65 | 1016.7 |
| 20260905144228 | 27 | 157 | 8.0 | 14.5 | 0.00 | 0.00 | 0.00 | 71 | 1017.4 |
| 20260905143227 | 27 | 166 | 9.7 | 17.7 | 0.00 | 0.00 | 0.00 | 73 | 1017.4 |
| 20260905141227 | 26 | 74 | 1.6 | 4.8 | 0.00 | 0.00 | 0.00 | 78 | 1017.1 |
| 20260905140226 | 25 | 166 | 4.8 | 9.7 | 0.00 | 0.00 | 0.00 | 81 | 1017.3 |
| 20260905135258 | 25 | 131 | 3.2 | 11.3 | 0.00 | 0.00 | 0.00 | 85 | 1017.2 |
| 20260905134327 | 25 | 163 | 6.4 | 11.3 | 0.00 | 0.00 | 0.00 | 88 | 1017.4 |
| 20260905133329 | 25 | 152 | 4.8 | 11.3 | 0.00 | 0.00 | 0.00 | 87 | 1017.2 |
| 20260905132328 | 25 | 134 | 3.2 | 8.0 | 0.00 | 0.00 | 0.00 | 89 | 1017.5 |
| 20260905131328 | 25 | 87 | 3.2 | 14.5 | 0.00 | 0.00 | 0.00 | 90 | 1017.7 |
| 20260905130327 | 25 | 148 | 1.6 | 4.8 | 0.00 | 0.00 | 0.00 | 93 | 1017.3 |
| 20260905124428 | 24 | 92 | 4.8 | 11.3 | 0.00 | 0.00 | 0.00 | 94 | 1017.2 |
| 20260905123429 | 24 | 180 | 0.0 | 0.0 | 0.00 | 0.00 | 0.00 | 95 | 1016.5 |
| 20260905122426 | 24 | 180 | 0.0 | 0.0 | 0.00 | 0.00 | 0.00 | 96 | 1016.2 |
| 20260905120429 | 23 | 180 | 1.6 | 3.2 | 0.00 | 0.00 | 0.00 | 96 | 1016.1 |
| 20260905115526 | 23 | 163 | 0.0 | 3.2 | 0.00 | 0.00 | 0.00 | 96 | 1016.2 |
| 20260905114528 | 23 | 90 | 0.0 | 0.0 | 0.00 | 0.00 | 0.00 | 96 | 1016.1 |
| 20260905113529 | 23 | 90 | 0.0 | 0.0 | 0.00 | 0.00 | 0.00 | 96 | 1016.0 |
| 20260905112628 | 23 | 90 | 0.0 | 0.0 | 0.00 | 0.00 | 0.00 | 96 | 1015.9 |
| 20260905112526 | 23 | 90 | 0.0 | 0.0 | 0.00 | 0.00 | 0.00 | 96 | 1015.8 |
| 20260905111530 | 23 | 90 | 0.0 | 0.0 | 0.00 | 0.00 | 0.00 | 96 | 1015.8 |
| 20260905110626 | 23 | 90 | 0.0 | 0.0 | 0.00 | 0.00 | 0.00 | 95 | 1015.6 |
| 20260905105726 | 23 | 90 | 0.0 | 0.0 | 0.00 | 0.00 | 0.00 | 95 | 1015.5 |
| 20260905104728 | 23 | 90 | 0.0 | 0.0 | 0.00 | 0.00 | 0.00 | 96 | 1015.5 |
| 20260905103729 | 23 | 90 | 0.0 | 0.0 | 0.00 | 0.00 | 0.00 | 95 | 1015.4 |
| 20260905101729 | 23 | 90 | 0.0 | 0.0 | 0.00 | 0.00 | 0.00 | 96 | 1015.7 |
| 20260905100728 | 23 | 90 | 0.0 | 0.0 | 0.00 | 0.00 | 0.00 | 95 | 1015.5 |
| 20260905094728 | 24 | 90 | 0.0 | 0.0 | 0.00 | 0.00 | 0.00 | 95 | 1015.5 |
| 20260905093726 | 23 | 90 | 0.0 | 0.0 | 0.00 | 0.00 | 0.00 | 95 | 1015.5 |
| 20260905091727 | 23 | 90 | 0.0 | 0.0 | 0.00 | 0.00 | 0.00 | 95 | 1015.3 |